Preview of NWS' New Version of Forecast
This preview is not operational and should not be used for support decisions.

Regional Weather Roundup (RWR)

Issued by National Weather Service (NWS)

                            
000
ASCA42 TJSJ 170310
RWRPR 
PUERTO RICO/U.S. VIRGIN ISLANDS HOURLY WEATHER ROUNDUP
NATIONAL WEATHER SERVICE SAN JUAN PR
1100 PM AST SAT MAR 16 2019

PRZ001>002-007>008-010-170400-
PUERTO RICO
  
CITY           SKY/WX    TMP DP  RH WIND       PRES   REMARKS
SAN JUAN LMM   PTCLDY    75  66  73 E5        30.08S                  
$$

VIZ001>002-170400-
U.S. VIRGIN ISLANDS
  
CITY           SKY/WX    TMP DP  RH WIND       PRES   REMARKS
CHARLOTTE AMA  PTCLDY    75  68  78 E5        30.06S                  
CHRISTIANSTED  CLEAR     72  66  83 NE6       30.07S                  
$$

HOURLY WEATHER ROUNDUP FOR THE NEWS MEDIA
  
CITY           SKY/WX    TMP DP  RH WIND       PRES   REMARKS
ORLANDO        CLOUDY    65  53  65 NE7       30.14S                  
NEW YORK       MOCLDY    40  17  39 NW24G30   30.14R WCI  29          
NEWARK         MOCLDY    40  17  39 NW12G21   30.14R WCI  33          
CHICAGO        FAIR      33  21  61 CALM      30.28S                  
HARTFORD       FAIR      35  20  54 W12G21    30.02S WCI  27          
BOSTON         FAIR      38  17  42 W13       30.00R WCI  30          
DALLAS         PTCLDY    51  29  42 E3        30.35S                  
PHILADELPHIA   FAIR      41  16  36 NW21G31   30.20R                  
LOS ANGELES    CLEAR     63  46  54 W6        29.98R